When you browse on this site, cookies collect data to enhance your experience and personalize the content and advertising you see.
Visit our Privacy Policy to learn more. By continuing to use the site, you agree to this use of cookies and data.
  • In Hungary
  • List of Countries
  • For 7 days
  • Water Temperature
  • Weather Map
  • News
  • Weather Widgets
  • user-avatar
    Login

    Hourly Weather Knittelfeld

    Today, 11 December, Wednesday

    Time Temperature Precipitation Wind Pressure Humidity
    00:00 -2°C° 0 mm 1 mps 699 mmHg 83%
    01:00 -2°C° 0 mm 1 mps 699 mmHg 78%
    02:00 -2°C° 0 mm 1 mps 699 mmHg 75%
    03:00 -2°C° 0 mm 1 mps 698 mmHg 73%
    04:00 -2°C° 0 mm 1 mps 698 mmHg 70%
    05:00 -3°C° 0 mm 0 mps 697 mmHg 66%
    06:00 -3°C° 0 mm 0 mps 697 mmHg 63%
    07:00 -3°C° 0 mm 0 mps 697 mmHg 60%
    08:00 -2°C° 0 mm 0 mps 696 mmHg 55%
    09:00 -1°C° 0 mm 0 mps 696 mmHg 50%
    10:00 0°C° 0 mm 0 mps 696 mmHg 45%
    11:00 +2°C° 0 mm 1 mps 695 mmHg 41%
    12:00 +2°C° 0 mm 1 mps 694 mmHg 37%
    13:00 +3°C° 0 mm 1 mps 694 mmHg 34%
    14:00 +2°C° 0 mm 1 mps 693 mmHg 39%
    15:00 +1°C° 0 mm 1 mps 692 mmHg 44%
    16:00 0°C° 0 mm 1 mps 691 mmHg 49%
    17:00 -1°C° 0 mm 1 mps 691 mmHg 50%
    18:00 -1°C° 0 mm 1 mps 691 mmHg 52%
    19:00 -2°C° 0 mm 1 mps 691 mmHg 54%
    20:00 -2°C° 0 mm 1 mps 690 mmHg 53%
    21:00 -2°C° 0 mm 1 mps 690 mmHg 53%
    22:00 -2°C° 0 mm 1 mps 689 mmHg 53%
    23:00 -2°C° 0 mm 1 mps 689 mmHg 51%

    Tomorrow, 12 December, Thursday

    Time Temperature Precipitation Wind Pressure Humidity
    00:00 -2°C° 0 mm 1 mps 689 mmHg 48%
    01:00 -2°C° 0 mm 1 mps 689 mmHg 46%
    02:00 -2°C° 0 mm 1 mps 688 mmHg 45%
    03:00 -2°C° 0 mm 1 mps 688 mmHg 44%
    04:00 -2°C° 0 mm 1 mps 687 mmHg 44%
    05:00 -3°C° 0 mm 1 mps 688 mmHg 46%
    06:00 -3°C° 0 mm 1 mps 688 mmHg 48%
    07:00 -4°C° 0 mm 0 mps 688 mmHg 50%
    08:00 -3°C° 0 mm 0 mps 688 mmHg 52%
    09:00 -1°C° 0 mm 0 mps 688 mmHg 54%
    10:00 0°C° 0 mm 0 mps 688 mmHg 56%
    11:00 0°C° 0 mm 0 mps 688 mmHg 61%
    12:00 +1°C° 0 mm 0 mps 688 mmHg 66%
    13:00 +2°C° 0 mm 1 mps 688 mmHg 70%
    14:00 +1°C° 0 mm 0 mps 687 mmHg 76%
    15:00 0°C° 0 mm 0 mps 687 mmHg 82%
    16:00 -1°C° 0 mm 0 mps 686 mmHg 88%
    17:00 -1°C° 0 mm 0 mps 686 mmHg 89%
    18:00 -1°C° 0 mm 0 mps 686 mmHg 91%
    19:00 -1°C° 0 mm 0 mps 686 mmHg 92%
    20:00 -1°C° 0 mm 0 mps 686 mmHg 92%
    21:00 -1°C° 0 mm 0 mps 685 mmHg 93%
    22:00 -1°C° 0 mm 0 mps 685 mmHg 93%
    23:00 -1°C° 0 mm 0 mps 684 mmHg 94%

    Day after tomorrow, 13 December, Friday

    Time Temperature Precipitation Wind Pressure Humidity
    00:00 0°C° 0 mm 1 mps 684 mmHg 95%
    01:00 -1°C° 0 mm 1 mps 683 mmHg 96%
    02:00 -1°C° 0 mm 1 mps 682 mmHg 95%
    03:00 -1°C° 0 mm 1 mps 681 mmHg 95%
    04:00 -1°C° 0 mm 1 mps 680 mmHg 94%
    05:00 -1°C° 0 mm 1 mps 680 mmHg 94%
    06:00 -1°C° 0 mm 1 mps 679 mmHg 94%
    07:00 -2°C° 0 mm 1 mps 678 mmHg 94%
    08:00 -3°C° 0 mm 2 mps 678 mmHg 91%
    09:00 -3°C° 0 mm 2 mps 677 mmHg 88%
    10:00 -2°C° 0 mm 2 mps 676 mmHg 85%
    11:00 -2°C° 0 mm 2 mps 676 mmHg 82%
    12:00 -1°C° 0 mm 2 mps 676 mmHg 79%
    13:00 -1°C° 0 mm 2 mps 675 mmHg 76%
    14:00 -1°C° 0 mm 2 mps 675 mmHg 77%
    15:00 0°C° 0 mm 1 mps 675 mmHg 78%
    16:00 0°C° 0 mm 1 mps 675 mmHg 79%
    17:00 0°C° 0.1 mm 1 mps 676 mmHg 81%
    18:00 0°C° 0.1 mm 1 mps 677 mmHg 83%
    19:00 -2°C° 0.1 mm 2 mps 678 mmHg 85%
    20:00 -1°C° 0 mm 2 mps 679 mmHg 85%
    21:00 +1°C° 0 mm 1 mps 679 mmHg 84%
    22:00 +1°C° 0 mm 1 mps 680 mmHg 84%
    23:00 +1°C° 0 mm 1 mps 680 mmHg 84%

    14 December, Saturday

    Time Temperature Precipitation Wind Pressure Humidity
    00:00 -2°C° 0 mm 2 mps 681 mmHg 84%
    01:00 -2°C° 0 mm 2 mps 681 mmHg 84%
    02:00 -2°C° 0 mm 2 mps 682 mmHg 82%
    03:00 0°C° 0 mm 1 mps 683 mmHg 80%
    04:00 0°C° 0 mm 1 mps 684 mmHg 79%
    05:00 0°C° 0 mm 1 mps 684 mmHg 79%
    06:00 0°C° 0 mm 1 mps 685 mmHg 79%
    07:00 -1°C° 0 mm 1 mps 685 mmHg 79%
    08:00 +1°C° 0 mm 1 mps 686 mmHg 74%
    09:00 +2°C° 0 mm 1 mps 686 mmHg 69%
    10:00 +3°C° 0 mm 1 mps 687 mmHg 64%
    11:00 +3°C° 0 mm 1 mps 687 mmHg 61%
    12:00 +4°C° 0 mm 1 mps 687 mmHg 59%
    13:00 +5°C° 0 mm 1 mps 688 mmHg 56%
    14:00 +4°C° 0 mm 1 mps 688 mmHg 60%
    15:00 +3°C° 0 mm 1 mps 688 mmHg 65%
    16:00 +2°C° 0 mm 1 mps 688 mmHg 69%
    17:00 +2°C° 0 mm 1 mps 688 mmHg 68%
    18:00 +2°C° 0 mm 1 mps 689 mmHg 66%
    19:00 +1°C° 0 mm 1 mps 689 mmHg 65%
    20:00 +1°C° 0 mm 1 mps 690 mmHg 64%
    21:00 +2°C° 0 mm 1 mps 690 mmHg 63%
    22:00 +2°C° 0 mm 1 mps 691 mmHg 62%
    23:00 +2°C° 0 mm 1 mps 691 mmHg 61%

    15 December, Sunday

    Time Temperature Precipitation Wind Pressure Humidity
    00:00 +2°C° 0 mm 1 mps 691 mmHg 59%
    01:00 +2°C° 0 mm 1 mps 691 mmHg 57%
    02:00 +2°C° 0 mm 1 mps 691 mmHg 57%
    03:00 +2°C° 0 mm 1 mps 691 mmHg 56%
    04:00 +2°C° 0 mm 1 mps 691 mmHg 56%
    05:00 +2°C° 0 mm 1 mps 691 mmHg 55%
    06:00 +2°C° 0 mm 1 mps 691 mmHg 55%
    07:00 +2°C° 0 mm 1 mps 691 mmHg 55%
    08:00 +3°C° 0 mm 1 mps 692 mmHg 54%
    09:00 +4°C° 0 mm 1 mps 692 mmHg 53%
    10:00 +5°C° 0 mm 1 mps 693 mmHg 52%
    11:00 +5°C° 0 mm 1 mps 693 mmHg 53%
    12:00 +6°C° 0 mm 1 mps 693 mmHg 54%
    13:00 +6°C° 0 mm 1 mps 693 mmHg 54%
    14:00 +5°C° 0 mm 1 mps 693 mmHg 57%
    15:00 +4°C° 0 mm 1 mps 693 mmHg 60%
    16:00 +3°C° 0 mm 1 mps 693 mmHg 63%
    17:00 +3°C° 0 mm 1 mps 694 mmHg 64%
    18:00 +3°C° 0 mm 1 mps 694 mmHg 65%
    19:00 +3°C° 0 mm 1 mps 695 mmHg 66%
    20:00 +3°C° 0 mm 1 mps 695 mmHg 67%
    21:00 +3°C° 0 mm 1 mps 696 mmHg 68%
    22:00 +3°C° 0 mm 1 mps 696 mmHg 70%
    23:00 +3°C° 0 mm 1 mps 697 mmHg 70%

    16 December, Monday

    Time Temperature Precipitation Wind Pressure Humidity
    00:00 +3°C° 0 mm 1 mps 697 mmHg 71%
    01:00 +3°C° 0 mm 1 mps 697 mmHg 71%
    02:00 +3°C° 0 mm 1 mps 697 mmHg 73%
    03:00 +3°C° 0 mm 1 mps 697 mmHg 74%
    04:00 +2°C° 0 mm 1 mps 697 mmHg 75%
    05:00 +3°C° 0 mm 1 mps 697 mmHg 76%
    06:00 +3°C° 0 mm 1 mps 697 mmHg 77%
    07:00 +3°C° 0 mm 1 mps 697 mmHg 78%
    08:00 +3°C° 0 mm 1 mps 696 mmHg 78%
    09:00 +3°C° 0 mm 1 mps 696 mmHg 79%
    10:00 +4°C° 0 mm 1 mps 696 mmHg 80%
    11:00 +4°C° 0 mm 1 mps 696 mmHg 80%
    12:00 +5°C° 0 mm 1 mps 695 mmHg 80%
    13:00 +5°C° 0 mm 2 mps 695 mmHg 81%
    14:00 +4°C° 0 mm 2 mps 695 mmHg 85%
    15:00 +3°C° 0 mm 2 mps 694 mmHg 89%
    16:00 +3°C° 0 mm 2 mps 694 mmHg 93%
    17:00 +3°C° 0 mm 2 mps 694 mmHg 94%
    18:00 +3°C° 0 mm 2 mps 694 mmHg 94%
    19:00 +3°C° 0 mm 2 mps 694 mmHg 95%
    20:00 +3°C° 0 mm 2 mps 694 mmHg 95%
    21:00 +3°C° 0 mm 2 mps 694 mmHg 95%
    22:00 +4°C° 0 mm 2 mps 693 mmHg 95%
    23:00 +4°C° 0 mm 2 mps 693 mmHg 95%
    Show more